Location: Altenhagen Eins
(52.1704°N, 9.5173°E)
Time: 05:12:14
(UTC+00:00)

Daily predictions for brighter satellites

Satellite Brightness Start Highest point End
(mag) Time Altitude Azimuth Time Altitude Azimuth Time Altitude Azimuth
ATLAS 3B R/B 4.3 02:27:10 31° NNE 02:27:10 31° NNE 02:31:58 10° ENE
ACS3 Solar Sail 4.3 02:28:18 10° NNE 02:28:39 12° NNE 02:28:39 12° NNE
Cosmos 2322 Rocket 4.3 02:50:36 21° NE 02:50:36 21° NE 02:54:13 10° E
NOSS 3-1 (A) 4.4 03:09:52 50° NE 03:09:52 50° NE 03:17:37 10° ESE
SL-16 R/B 3.4 03:19:10 38° ENE 03:19:10 38° ENE 03:23:50 10° ESE
Cosmos 2082 Rocket 3.3 03:23:08 41° E 03:23:08 41° E 03:27:52 10° NE
USA 234 3.5 03:22:59 10° ENE 03:28:36 61° NNE 03:28:36 61° NNE
SeaSat 1 4.4 03:26:09 10° NNE 03:27:52 22° NNE 03:27:52 22° NNE
Cosmos 2278 4.4 03:42:21 47° NE 03:42:44 47° NE 03:48:10 10° SE
NOSS 3-1 (C) 3.7 03:52:29 76° W 03:53:01 80° SW 04:01:39 10° SE
Timation 1 Rocket 4.4 03:56:01 72° NNE 03:56:01 72° NNE 04:01:21 10° NNE
Cosmos 841 Rocket 4.1 04:00:24 35° SSE 04:02:18 54° ESE 04:07:25 10° NNE
COSMOS 2455 3.6 04:07:00 39° S 04:07:00 39° S 04:10:55 10° SSE
Cosmos 2360 Rocket 3.0 04:09:26 33° N 04:11:28 47° NE 04:16:53 10° SE
Cosmos 2333 Rocket 2.5 04:11:00 47° N 04:12:33 65° NE 04:18:16 10° SE
ACS3 Solar Sail 3.8 04:11:53 10° N 04:12:40 13° N 04:12:40 13° N
ATLAS 3B R/B 3.8 04:14:24 30° NNW 04:17:30 40° NNE 04:24:43 10° E
Nadezhda 4 Rocket 3.9 04:13:02 10° S 04:19:20 85° E 04:25:38 10° N
Cosmos 2237 Rocket 4.4 04:18:19 12° N 04:20:37 15° NNE 04:23:41 10° NE
NOSS 3-4 (A) 4.0 04:23:03 38° NNW 04:23:03 38° NNW 04:28:44 10° NE
NOSS 3-4 (C) 4.0 04:23:12 38° NNW 04:23:12 38° NNW 04:28:55 10° NE
Cosmos 1892 Rocket 4.3 04:19:54 10° S 04:24:08 52° E 04:28:26 10° NNE
Cosmos-2242 3.9 04:24:04 29° NNE 04:25:49 47° ENE 04:29:53 10° SSE
ADEOS Rocket 4.4 04:22:12 10° N 04:27:21 30° NW 04:27:21 30° NW
Cosmos 2219 Rocket 3.2 04:25:49 23° N 04:28:55 41° NE 04:34:14 10° ESE
Cosmos 220 Rocket 4.1 04:29:35 62° NE 04:29:35 62° NE 04:33:09 10° NNE
COSMO-SKYMED 1 2.6 04:28:07 10° SSE 04:32:13 72° ENE 04:32:40 64° NNE
Cosmos 468 Rocket 4.4 04:33:47 44° NNW 04:33:47 44° NNW 04:37:48 10° NNE
IRS-1D 3.7 04:27:43 10° NNE 04:32:44 70° ESE 04:37:47 10° S
Meteor 2-20 4.4 04:28:05 10° N 04:34:15 84° E 04:40:20 10° SSE
Cosmos 2322 Rocket 2.4 04:32:25 34° NNW 04:34:59 71° ENE 04:40:39 10° SE
Orbus 7S? 3.7 04:48:22 42° E 04:48:22 42° E 04:50:15 10° ESE
Cosmos 1937 Rocket 4.0 04:49:25 38° SW 04:49:25 38° SW 04:53:23 10° S
USA 59 Rocket 2.1 04:54:18 14° SSW 04:54:18 14° SSW 04:55:36 10° SSW
Cosmos 2333 4.4 04:49:16 24° NNW 04:52:48 71° NE 04:58:29 10° SE
BREEZE-M DEB (TANK) 4.4 04:55:04 16° SE 04:55:04 16° SE 04:55:41 10° SE
Meteor 1-26 Rocket 4.1 04:49:15 13° NNW 04:54:11 87° WSW 04:59:52 10° S
Cosmos 1833 Rocket 4.1 04:55:08 21° NNW 04:55:08 21° NNW 04:58:41 10° NNE
Cosmos 1484 Rocket 4.0 04:51:43 10° NNE 04:54:56 37° E 04:58:06 10° SSE
Meteor 2-3 Rocket 3.6 04:49:23 10° SSW 04:55:08 80° WNW 05:00:51 10° NNE
Meteor 2-20 Rocket 4.2 04:50:13 10° N 04:56:02 87° E 05:01:45 10° S
Cosmos 2058 Rocket 2.9 04:54:41 29° NNW 04:56:57 82° W 05:01:21 10° S
SKYMED 2 4.0 04:56:33 10° S 05:00:14 42° WSW 05:00:14 42° WSW
COSMOS 2406 3.1 04:55:18 10° SW 05:00:58 76° WNW 05:06:42 10° NNE
NOSS 3-1 (A) 4.0 04:57:15 31° NW 05:01:01 69° SW 05:09:40 10° SSE
SL-16 R/B 2.4 05:01:03 37° WNW 05:02:48 50° WSW 05:08:14 10° S
COSMOS 2428 4.1 05:01:17 13° NNW 05:05:51 33° NE 05:10:59 10° ESE
CZ-4 R/B 3.6 05:01:35 10° NNE 05:06:14 70° WNW 05:10:48 10° SSW
Cosmos 2082 Rocket 2.5 05:05:01 35° W 05:06:41 44° NW 05:12:04 10° NNE
SeaSat 1 3.7 05:04:05 10° NNE 05:07:30 24° NNW 05:07:30 24° NNW
Cosmos 1627 Rocket 4.3 05:03:50 10° SSW 05:09:57 77° WNW 05:16:08 10° N
ATLAS 5 CENTAUR R/B 3.0 05:10:38 17° N 05:10:38 17° N 05:12:36 10° NNE
USA 234 3.5 05:05:44 10° E 05:12:10 60° N 05:15:57 26° WNW
Okean 1 2.9 05:11:24 46° NW 05:12:16 67° W 05:15:48 10° S
BREEZE-M DEB (TANK) 3.4 05:12:02 36° SSW 05:12:39 44° S 05:14:51 10° E
CZ-2C R/B 4.0 05:11:15 10° N 05:13:16 18° NNW 05:13:16 18° NNW
NOAA 12 4.0 05:11:18 10° N 05:16:32 61° WNW 05:21:41 10° SSW
Helios 1A Rocket 3.2 05:13:28 10° S 05:15:55 34° SW 05:15:55 34° SW
DMSP B5D1-3 4.4 05:15:11 10° S 05:20:18 76° WSW 05:25:26 10° NNW
Cosmos 2285 Rocket 4.0 05:17:03 14° NNW 05:22:44 78° WSW 05:29:09 10° SSE
BREEZE-M DEB (TANK) 3.1 05:23:26 33° WSW 05:24:26 58° S 05:29:26 10° E
USA 229 4.3 05:20:07 19° NW 05:25:31 59° NE 05:33:22 10° ESE
USA 229 DEB 4.3 05:20:12 19° NW 05:25:36 59° NE 05:33:27 10° ESE
BREEZE-M DEB (TANK) 3.7 05:24:35 20° SW 05:26:16 31° S 05:31:56 10° ESE
Cosmos 2278 4.2 05:24:16 26° WNW 05:26:46 38° WSW 05:31:56 10° S
SL-4 R/B 2.1 05:28:33 32° WSW 05:29:28 41° SSW 05:32:29 10° SE
IRIDIUM 103 4.3 05:25:15 10° S 05:30:29 86° E 05:35:45 10° N
RUBIN 8/PSLV 4.5 05:26:59 10° N 05:31:17 62° WNW 05:35:30 10° SSW
Cosmos 2151 4.1 05:28:30 10° SSE 05:32:23 44° E 05:36:18 10° NNE
Cosmos 1758 Rocket 3.7 05:29:45 10° S 05:34:09 76° E 05:38:33 10° NNE
Cosmos 2221 2.6 05:30:29 10° N 05:34:38 72° ENE 05:38:46 10° SSE
Cosmos 2026 Rocket 4.0 05:29:17 10° SSW 05:35:10 51° WNW 05:41:09 10° N
Thor Agena Rocket 4.2 05:33:41 10° NNE 05:38:42 58° ESE 05:43:39 10° S
Cosmos 1238 Rocket 4.0 05:39:02 10° N 05:41:34 27° ENE 05:44:04 10° SE
SL-16 R/B 4.3 05:39:09 10° NNW 05:42:40 16° NNE 05:46:10 10° ENE
Cosmos 405 Rocket 2.1 05:40:35 10° SSW 05:43:51 77° WNW 05:47:08 10° N
Cosmos 841 Rocket 4.2 05:40:31 14° WSW 05:44:22 31° NW 05:49:04 10° NNE
Cosmos 1707 2.8 05:42:11 10° N 05:45:17 56° ENE 05:48:22 10° SSE
IRIDIUM 106 4.3 05:43:38 10° SSW 05:48:49 70° W 05:54:04 10° N
Cosmos 158 Rocket 4.0 05:44:16 10° SSW 05:49:35 87° ESE 05:54:50 10° NNE
KORONAS-FOTON 3.7 05:49:31 10° N 05:52:53 73° ENE 05:56:15 10° SSE
Cosmos 2360 Rocket 2.7 05:51:12 15° NW 05:55:23 39° WSW 06:00:32 10° S
S3M 4.0 05:49:10 10° N 05:55:26 85° E 06:01:34 10° S
Cosmos 2333 Rocket 3.2 05:53:03 16° WNW 05:56:26 28° WSW 06:01:13 10° SSW
Cosmos 1553 Rocket 4.2 05:50:45 10° NNW 05:56:54 52° W 06:03:04 10° SSW
Cosmos 1626 Rocket 3.6 05:52:50 10° SSW 05:57:11 57° WNW 06:01:33 10° N
SMAP 3.1 05:54:24 10° NNE 05:59:06 84° ESE 06:03:45 10° SSW
Cosmos 1833 4.3 05:55:55 10° SSW 06:01:34 85° ESE 06:07:19 10° NNE
Cosmos 1092 Rocket 4.4 05:56:24 10° SW 06:02:13 39° WNW 06:08:01 10° N
Cosmos-2242 4.2 06:00:27 15° NW 06:02:33 21° W 06:05:43 10° SW
Cosmos 1842 3.2 06:00:12 10° N 06:03:32 67° ENE 06:06:50 10° SSE
SL-08 R/B 3.8 05:59:23 10° SSE 06:03:54 59° ENE 06:08:33 10° N
Landsat 7 3.9 05:59:41 10° NNE 06:04:23 78° ESE 06:09:02 10° S
Cosmos 2237 Rocket 3.3 06:01:07 10° NNW 06:06:21 38° NE 06:11:34 10° ESE
Cosmos 1125 Rocket 3.5 06:02:10 10° NNW 06:07:24 67° WSW 06:12:35 10° SSE
COSMO-SKYMED 1 4.1 06:05:42 10° WSW 06:08:02 15° W 06:08:59 14° WNW
ATLAS 3B R/B 3.1 06:01:38 11° NW 06:09:23 79° NE 06:16:58 10° SE
Meteor 1-10 Rocket 4.3 06:03:42 10° NNW 06:09:37 78° W 06:15:33 10° S
Cosmos 2219 Rocket 2.6 06:07:34 10° NW 06:12:57 46° WSW 06:18:17 10° S
Meteor 1-19 Rocket 4.3 06:09:16 10° NNW 06:14:59 67° W 06:20:51 10° S
NOSS 0 Rocket 4.2 06:10:44 10° NNW 06:16:58 69° NE 06:23:11 10° SE
Cosmos 2322 Rocket 3.3 06:14:14 11° NW 06:18:30 25° WSW 06:22:59 10° SSW
BREEZE-M DEB (TANK) 4.1 06:05:09 10° W 06:21:23 73° S 06:25:29 10° ESE
IGS 5A 4.2 06:22:57 10° N 06:26:26 29° WNW 06:29:54 10° SW
Cosmos 1812 Rocket 4.1 06:22:40 10° NNW 06:26:40 37° W 06:30:39 10° SSW
Okean 1-7 Rocket 3.6 06:22:26 10° SSW 06:26:56 75° WNW 06:31:26 10° N
Cosmos 1484 Rocket 3.8 06:25:04 10° NNW 06:27:37 20° WNW 06:30:09 10° WSW
YAOGAN 11 4.1 06:23:20 10° SSE 06:27:41 87° WSW 06:32:01 10° NNW
Cosmos 2322 3.7 06:22:32 10° NNW 06:28:13 77° WSW 06:33:51 10° SSE
SJ-12 3.7 06:27:35 10° N 06:31:22 62° WNW 06:35:08 10° SSW
Cosmos 1437 Rocket 3.2 06:29:47 10° NNW 06:32:54 32° W 06:36:01 10° SSW
Cosmos 2266 Rocket 4.1 06:27:06 10° SSW 06:33:27 65° WNW 06:39:44 10° N
Cosmos 1602 Rocket 3.9 06:31:30 10° SSW 06:35:45 44° WNW 06:40:02 10° N
ATLAS 2AS CENTAUR R/B 3.0 06:30:07 10° SW 06:37:09 80° SE 06:44:01 10° NE
Cosmos 1818 4.2 06:33:19 10° NW 06:38:40 52° NE 06:43:59 10° ESE
ARIANE 5 R/B 2.6 06:34:49 10° NNE 06:40:00 68° WNW 06:45:11 10° SSW
